Location: El Bakhil
(32.7726°N, 5.5387°W)
Time: 00:30:57
(UTC+00:00)

SO-50 - Visible Passes

Search period start: 02 August 2021 00:00
Search period end: 12 August 2021 00:00
Orbit: 610 x 675 km, 64.6° (Epoch: 01 August)

Date Brightness Start Highest point End Pass type
(mag) Time Alt. Az. Time Alt. Az. Time Alt. Az.
02 Aug ? 03:11:24 10° NNW 03:15:58 49° ENE 03:20:36 10° SE visible
02 Aug ? 04:53:23 10° WNW 04:55:59 15° WSW 04:58:36 10° SW visible
03 Aug ? 01:57:33 10° NNE 02:00:02 14° NE 02:02:31 10° E visible
03 Aug ? 03:36:09 10° NW 03:40:50 63° WSW 03:41:21 58° SSW visible
04 Aug ? 02:21:00 10° N 02:24:47 31° NE 02:24:47 31° NE visible
04 Aug ? 04:01:45 10° WNW 04:02:14 12° WNW 04:02:14 12° WNW visible
05 Aug ? 02:45:27 10° NNW 02:46:58 21° NNW 02:46:58 21° NNW visible
06 Aug ? 01:30:47 10° N 01:32:13 16° NNE 01:32:13 16° NNE visible
07 Aug ? 01:54:53 10° NNW 01:55:18 12° NNW 01:55:18 12° NNW visible
08 Aug ? 00:40:51 10° NNE 00:41:03 11° NNE 00:41:03 11° NNE visible
09 Aug ? 01:04:27 10° N 01:04:29 10° N 01:04:29 10° N visible
